Time,TemperatureF,DewpointF,PressureIn,WindDirection,WindDirectionDegrees,WindSpeedMPH,WindSpeedGustMPH,Humidity,HourlyPrecipIn,Conditions,Clouds,dailyrainin,SoftwareType,DateUTC
2013-02-11 03:37:00,33.5,24.7,29.65,South,180,2.5,2.5,70,0.00,,,0.00,WUHU216HW,2013-02-11 09:37:00,
2013-02-11 03:42:00,33.5,24.7,29.82,South,177,3.3,7.4,70,0.00,,,0.00,WUHU216HW,2013-02-11 09:42:00,
2013-02-11 03:47:00,33.5,24.7,29.82,SW,217,3.9,7.6,70,0.00,,,0.00,WUHU216HW,2013-02-11 09:47:00,
2013-02-11 03:52:00,33.5,24.7,29.82,South,180,4.0,7.6,70,0.00,,,0.00,WUHU216HW,2013-02-11 09:52:00,
2013-02-11 03:57:00,33.5,24.7,29.82,WSW,237,6.2,9.8,70,0.00,,,0.00,WUHU216HW,2013-02-11 09:57:00,
2013-02-11 04:02:00,33.5,24.7,29.82,SSW,199,2.8,9.8,70,0.00,,,0.00,WUHU216HW,2013-02-11 10:02:00,
2013-02-11 04:07:00,33.5,24.7,29.83,SW,223,7.3,10.5,70,0.00,,,0.00,WUHU216HW,2013-02-11 10:07:00,
2013-02-11 04:12:00,33.5,25.0,29.83,SW,236,3.8,10.5,71,0.00,,,0.00,WUHU216HW,2013-02-11 10:12:00,
2013-02-11 04:17:00,33.5,25.4,29.83,WSW,248,4.7,7.4,72,0.00,,,0.00,WUHU216HW,2013-02-11 10:17:00,
2013-02-11 04:22:00,33.5,25.0,29.83,WSW,249,4.5,8.5,71,0.00,,,0.00,WUHU216HW,2013-02-11 10:22:00,
2013-02-11 04:27:00,33.3,25.2,29.84,WSW,248,7.6,9.6,72,0.00,,,0.00,WUHU216HW,2013-02-11 10:27:00,
2013-02-11 04:32:00,33.3,25.2,29.84,SW,231,3.3,9.6,72,0.00,,,0.00,WUHU216HW,2013-02-11 10:32:00,
2013-02-11 04:37:00,33.3,25.5,29.84,SW,225,3.4,8.5,73,0.00,,,0.00,WUHU216HW,2013-02-11 10:37:00,
2013-02-11 04:42:00,33.3,25.5,29.84,SW,220,3.3,7.2,73,0.00,,,0.00,WUHU216HW,2013-02-11 10:42:00,
2013-02-11 04:47:00,33.3,25.5,29.84,SSW,193,3.6,7.2,73,0.00,,,0.00,WUHU216HW,2013-02-11 10:47:00,
2013-02-11 04:52:00,33.3,25.5,29.85,SSW,199,3.7,7.2,73,0.00,,,0.00,WUHU216HW,2013-02-11 10:52:00,
2013-02-11 04:57:00,33.3,25.5,29.85,SW,235,6.7,9.6,73,0.00,,,0.00,WUHU216HW,2013-02-11 10:57:00,
2013-02-11 05:02:00,33.3,25.5,29.85,WSW,247,4.3,9.6,73,0.00,,,0.00,WUHU216HW,2013-02-11 11:02:00,
2013-02-11 05:07:00,33.3,25.5,29.85,SW,217,3.6,9.4,73,0.00,,,0.00,WUHU216HW,2013-02-11 11:07:00,
2013-02-11 05:12:00,33.1,25.4,29.85,WSW,245,5.0,9.4,73,0.00,,,0.00,WUHU216HW,2013-02-11 11:12:00,
2013-02-11 05:17:00,33.1,25.4,29.85,West,268,2.0,6.9,73,0.00,,,0.00,WUHU216HW,2013-02-11 11:17:00,
2013-02-11 05:22:00,33.1,25.0,29.86,WSW,238,3.1,7.4,72,0.00,,,0.00,WUHU216HW,2013-02-11 11:22:00,
2013-02-11 05:27:00,33.1,25.4,29.86,SW,226,3.3,7.4,73,0.00,,,0.00,WUHU216HW,2013-02-11 11:27:00,
2013-02-11 05:32:00,33.1,25.0,29.86,WSW,248,4.0,7.4,72,0.00,,,0.00,WUHU216HW,2013-02-11 11:32:00,
2013-02-11 05:37:00,33.1,25.0,29.87,WSW,246,3.8,9.6,72,0.00,,,0.00,WUHU216HW,2013-02-11 11:37:00,
2013-02-11 05:42:00,33.1,24.7,29.87,SW,224,5.0,9.6,71,0.00,,,0.00,WUHU216HW,2013-02-11 11:42:00,
2013-02-11 05:47:00,33.1,25.0,29.88,SSW,203,5.1,6.9,72,0.00,,,0.00,WUHU216HW,2013-02-11 11:47:00,
2013-02-11 05:52:00,32.9,24.8,29.88,WSW,240,3.8,9.2,72,0.00,,,0.00,WUHU216HW,2013-02-11 11:52:00,
2013-02-11 05:57:00,32.9,24.8,29.88,WNW,293,9.2,11.4,72,0.00,,,0.00,WUHU216HW,2013-02-11 11:57:00,
2013-02-11 06:02:00,32.9,24.8,29.88,WSW,248,6.5,11.4,72,0.00,,,0.00,WUHU216HW,2013-02-11 12:02:00,
2013-02-11 06:07:00,32.8,24.7,29.89,South,180,9.2,9.2,72,0.00,,,0.00,WUHU216HW,2013-02-11 12:07:00,
2013-02-11 06:12:00,32.8,24.4,29.90,SW,222,7.1,10.5,71,0.00,,,0.00,WUHU216HW,2013-02-11 12:12:00,
2013-02-11 06:17:00,32.8,24.4,29.90,WSW,244,5.5,10.5,71,0.00,,,0.00,WUHU216HW,2013-02-11 12:17:00,
2013-02-11 06:22:00,32.8,24.4,29.90,WNW,298,3.6,7.6,71,0.00,,,0.00,WUHU216HW,2013-02-11 12:22:00,
2013-02-11 06:27:00,32.8,24.0,29.90,WSW,245,5.5,14.3,70,0.00,,,0.00,WUHU216HW,2013-02-11 12:27:00,
2013-02-11 06:32:00,32.8,24.0,29.91,SW,225,10.3,14.3,70,0.00,,,0.00,WUHU216HW,2013-02-11 12:32:00,
2013-02-11 06:37:00,32.6,23.9,29.91,WSW,248,5.8,10.7,70,0.00,,,0.00,WUHU216HW,2013-02-11 12:37:00,
2013-02-11 06:42:00,32.6,23.9,29.91,South,180,6.9,10.3,70,0.00,,,0.00,WUHU216HW,2013-02-11 12:42:00,
2013-02-11 06:47:00,32.6,23.9,29.91,SW,225,5.8,6.9,70,0.00,,,0.00,WUHU216HW,2013-02-11 12:47:00,
2013-02-11 06:52:00,32.6,23.9,29.91,WNW,293,5.4,6.9,70,0.00,,,0.00,WUHU216HW,2013-02-11 12:52:00,
2013-02-11 06:57:00,32.6,24.2,29.92,West,270,3.6,7.6,71,0.00,,,0.00,WUHU216HW,2013-02-11 12:57:00,
2013-02-11 07:02:00,32.4,23.8,29.92,WNW,282,4.6,8.5,70,0.00,,,0.00,WUHU216HW,2013-02-11 13:02:00,
2013-02-11 07:07:00,32.4,23.8,29.92,West,266,4.5,8.5,70,0.00,,,0.00,WUHU216HW,2013-02-11 13:07:00,
2013-02-11 07:12:00,32.4,23.8,29.92,WSW,248,6.5,8.7,70,0.00,,,0.00,WUHU216HW,2013-02-11 13:12:00,
2013-02-11 07:17:00,32.4,23.8,29.93,SW,223,4.8,9.6,70,0.00,,,0.00,WUHU216HW,2013-02-11 13:17:00,
2013-02-11 07:22:00,32.2,23.6,29.93,SE,135,5.4,9.6,70,0.00,,,0.00,WUHU216HW,2013-02-11 13:22:00,
2013-02-11 07:27:00,32.2,23.6,29.94,SE,135,6.3,8.5,70,0.00,,,0.00,WUHU216HW,2013-02-11 13:27:00,
2013-02-11 07:32:00,32.4,23.4,29.94,SSW,195,2.6,8.5,69,0.00,,,0.00,WUHU216HW,2013-02-11 13:32:00,
2013-02-11 07:38:00,32.4,23.8,29.94,South,180,5.1,8.5,70,0.00,,,0.00,WUHU216HW,2013-02-11 13:38:00,
2013-02-11 07:43:00,32.2,23.6,29.94,SW,231,5.5,7.8,70,0.00,,,0.00,WUHU216HW,2013-02-11 13:43:00,
2013-02-11 07:48:00,32.2,23.6,29.95,SSW,211,3.7,8.7,70,0.00,,,0.00,WUHU216HW,2013-02-11 13:48:00,
2013-02-11 07:53:00,32.2,23.6,29.95,WNW,282,3.3,8.9,70,0.00,,,0.00,WUHU216HW,2013-02-11 13:53:00,
2013-02-11 07:58:00,32.2,23.6,29.96,SSW,200,5.1,8.9,70,0.00,,,0.00,WUHU216HW,2013-02-11 13:58:00,
2013-02-11 08:03:00,32.0,23.4,29.96,NW,315,4.9,8.5,70,0.00,,,0.00,WUHU216HW,2013-02-11 14:03:00,
2013-02-11 08:08:00,32.0,23.4,29.97,South,180,4.7,8.5,70,0.00,,,0.00,WUHU216HW,2013-02-11 14:08:00,
2013-02-11 08:13:00,32.0,23.4,29.97,WSW,250,4.4,7.8,70,0.00,,,0.00,WUHU216HW,2013-02-11 14:13:00,
2013-02-11 08:18:00,32.0,23.4,29.97,SW,226,4.4,7.8,70,0.00,,,0.00,WUHU216HW,2013-02-11 14:18:00,
2013-02-11 08:23:00,32.0,23.4,29.98,WNW,282,2.2,6.7,70,0.00,,,0.00,WUHU216HW,2013-02-11 14:23:00,
2013-02-11 08:28:00,32.0,23.0,29.98,NNW,338,4.9,10.1,69,0.00,,,0.00,WUHU216HW,2013-02-11 14:28:00,
2013-02-11 08:33:00,32.0,23.0,29.98,West,270,6.9,10.1,69,0.00,,,0.00,WUHU216HW,2013-02-11 14:33:00,
2013-02-11 08:38:00,32.0,23.0,29.98,ENE,68,5.8,9.4,69,0.00,,,0.00,WUHU216HW,2013-02-11 14:38:00,
2013-02-11 08:43:00,32.2,23.6,29.99,West,270,5.6,9.4,70,0.00,,,0.00,WUHU216HW,2013-02-11 14:43:00,
2013-02-11 08:48:00,32.0,23.4,29.99,West,270,5.8,8.3,70,0.00,,,0.00,WUHU216HW,2013-02-11 14:48:00,
2013-02-11 08:53:00,32.0,23.0,29.99,WNW,293,6.3,7.6,69,0.00,,,0.00,WUHU216HW,2013-02-11 14:53:00,
2013-02-11 08:58:00,32.0,23.4,30.00,West,270,4.9,8.1,70,0.00,,,0.00,WUHU216HW,2013-02-11 14:58:00,
2013-02-11 09:03:00,32.0,22.7,30.00,SW,234,6.1,8.1,68,0.00,,,0.00,WUHU216HW,2013-02-11 15:03:00,
2013-02-11 09:08:00,32.0,23.0,30.00,SW,233,3.0,7.6,69,0.00,,,0.00,WUHU216HW,2013-02-11 15:08:00,
2013-02-11 09:13:00,32.0,23.0,30.01,WSW,248,6.9,8.3,69,0.00,,,0.00,WUHU216HW,2013-02-11 15:13:00,
2013-02-11 09:18:00,31.9,23.2,30.01,WSW,257,3.1,8.3,70,0.00,,,0.00,WUHU216HW,2013-02-11 15:18:00,
2013-02-11 09:23:00,31.9,23.2,30.01,West,262,2.0,7.8,70,0.00,,,0.00,WUHU216HW,2013-02-11 15:23:00,
2013-02-11 09:28:00,31.9,23.2,30.01,WSW,248,5.4,7.6,70,0.00,,,0.00,WUHU216HW,2013-02-11 15:28:00,
2013-02-11 09:33:00,31.9,23.2,30.02,SW,224,3.9,7.6,70,0.00,,,0.00,WUHU216HW,2013-02-11 15:33:00,
2013-02-11 09:38:00,31.9,23.2,30.02,West,279,2.1,6.7,70,0.00,,,0.00,WUHU216HW,2013-02-11 15:38:00,
2013-02-11 09:43:00,31.9,22.9,30.02,WSW,251,3.7,6.3,69,0.00,,,0.00,WUHU216HW,2013-02-11 15:43:00,
2013-02-11 09:48:00,31.9,23.2,30.02,WSW,242,3.5,6.9,70,0.00,,,0.00,WUHU216HW,2013-02-11 15:48:00,
2013-02-11 09:53:00,31.9,22.5,30.03,SW,227,5.4,6.9,68,0.00,,,0.00,WUHU216HW,2013-02-11 15:53:00,
2013-02-11 09:58:00,32.0,23.0,30.03,ENE,68,5.1,6.9,69,0.00,,,0.00,WUHU216HW,2013-02-11 15:58:00,
2013-02-11 10:03:00,31.9,22.9,30.03,West,261,4.6,6.0,69,0.00,,,0.00,WUHU216HW,2013-02-11 16:03:00,
2013-02-11 10:08:00,31.9,22.9,30.04,SW,226,4.4,10.3,69,0.00,,,0.00,WUHU216HW,2013-02-11 16:08:00,
2013-02-11 10:13:00,32.0,22.7,30.04,West,275,4.1,10.3,68,0.00,,,0.00,WUHU216HW,2013-02-11 16:13:00,
2013-02-11 10:18:00,32.0,22.3,30.04,WSW,244,4.3,8.5,67,0.00,,,0.00,WUHU216HW,2013-02-11 16:18:00,
2013-02-11 10:23:00,32.0,23.4,30.05,WSW,248,3.6,7.6,70,0.00,,,0.00,WUHU216HW,2013-02-11 16:23:00,
2013-02-11 10:28:00,32.0,23.4,30.05,WNW,293,4.0,6.7,70,0.00,,,0.00,WUHU216HW,2013-02-11 16:28:00,
2013-02-11 10:33:00,32.2,23.6,30.06,WNW,284,4.6,8.7,70,0.00,,,0.00,WUHU216HW,2013-02-11 16:33:00,
2013-02-11 10:38:00,32.4,23.4,30.06,WSW,248,7.4,8.7,69,0.00,,,0.00,WUHU216HW,2013-02-11 16:38:00,
2013-02-11 10:43:00,32.4,23.8,30.06,West,270,3.4,7.4,70,0.00,,,0.00,WUHU216HW,2013-02-11 16:43:00,
2013-02-11 10:48:00,32.6,23.1,30.06,South,188,4.4,7.6,68,0.00,,,0.00,WUHU216HW,2013-02-11 16:48:00,
2013-02-11 10:53:00,32.4,23.8,30.06,WSW,249,3.3,7.6,70,0.00,,,0.00,WUHU216HW,2013-02-11 16:53:00,
2013-02-11 10:58:00,32.2,23.2,30.06,WSW,246,2.5,6.9,69,0.00,,,0.00,WUHU216HW,2013-02-11 16:58:00,
2013-02-11 11:03:00,32.0,23.0,30.07,SW,225,6.3,11.9,69,0.00,,,0.00,WUHU216HW,2013-02-11 17:03:00,
2013-02-11 11:08:00,32.2,23.2,30.07,SW,222,3.6,11.9,69,0.00,,,0.00,WUHU216HW,2013-02-11 17:08:00,
2013-02-11 11:13:00,32.2,23.6,30.07,WNW,296,3.7,7.4,70,0.00,,,0.00,WUHU216HW,2013-02-11 17:13:00,
2013-02-11 11:18:00,32.4,23.8,30.08,WSW,256,5.6,8.1,70,0.00,,,0.00,WUHU216HW,2013-02-11 17:18:00,
2013-02-11 11:23:00,32.2,23.6,30.08,SSW,202,4.0,10.3,70,0.00,,,0.00,WUHU216HW,2013-02-11 17:23:00,
2013-02-11 11:28:00,32.2,23.6,30.08,NNW,338,3.6,10.3,70,0.00,,,0.00,WUHU216HW,2013-02-11 17:28:00,
2013-02-11 11:33:00,32.2,23.2,30.08,SW,223,4.2,8.5,69,0.00,,,0.00,WUHU216HW,2013-02-11 17:33:00,
2013-02-11 11:38:00,32.6,23.5,30.08,NE,45,3.4,8.5,69,0.00,,,0.00,WUHU216HW,2013-02-11 17:38:00,
2013-02-11 11:43:00,32.6,23.5,30.08,SW,235,3.8,5.4,69,0.00,,,0.00,WUHU216HW,2013-02-11 17:43:00,
2013-02-11 11:48:00,32.8,23.7,30.08,SW,225,4.0,5.6,69,0.00,,,0.00,WUHU216HW,2013-02-11 17:48:00,
2013-02-11 11:53:00,32.8,23.7,30.08,WSW,248,2.2,7.8,69,0.00,,,0.00,WUHU216HW,2013-02-11 17:53:00,
2013-02-11 11:58:00,32.8,23.3,30.09,SW,232,4.9,7.8,68,0.00,,,0.00,WUHU216HW,2013-02-11 17:58:00,
2013-02-11 12:03:00,32.8,23.7,30.08,SSW,203,4.3,8.7,69,0.00,,,0.00,WUHU216HW,2013-02-11 18:03:00,
2013-02-11 12:08:00,32.8,23.7,30.08,West,270,4.0,8.7,69,0.00,,,0.00,WUHU216HW,2013-02-11 18:08:00,
2013-02-11 12:13:00,32.8,24.0,30.08,West,270,1.3,7.2,70,0.00,,,0.00,WUHU216HW,2013-02-11 18:13:00,
2013-02-11 12:18:00,32.8,23.7,30.09,North,0,4.3,7.2,69,0.00,,,0.00,WUHU216HW,2013-02-11 18:18:00,
2013-02-11 12:23:00,32.4,23.8,30.09,WNW,283,1.2,6.9,70,0.00,,,0.00,WUHU216HW,2013-02-11 18:23:00,
2013-02-11 12:29:00,32.4,23.4,30.09,SW,225,3.8,4.9,69,0.00,,,0.00,WUHU216HW,2013-02-11 18:29:00,
2013-02-11 12:33:00,32.4,23.8,30.09,WSW,248,5.4,5.6,70,0.00,,,0.00,WUHU216HW,2013-02-11 18:33:00,
2013-02-11 12:39:00,32.6,23.5,30.09,WSW,250,5.0,7.6,69,0.00,,,0.00,WUHU216HW,2013-02-11 18:39:00,
2013-02-11 12:44:00,32.6,23.5,30.09,WNW,293,6.9,7.6,69,0.00,,,0.00,WUHU216HW,2013-02-11 18:44:00,
2013-02-11 12:49:00,32.8,23.7,30.09,SSW,203,3.6,8.7,69,0.00,,,0.00,WUHU216HW,2013-02-11 18:49:00,
2013-02-11 12:54:00,32.9,23.1,30.10,WSW,248,5.8,8.7,67,0.00,,,0.00,WUHU216HW,2013-02-11 18:54:00,
2013-02-11 12:59:00,33.1,23.7,30.10,NW,315,2.9,6.0,68,0.00,,,0.00,WUHU216HW,2013-02-11 18:59:00,
2013-02-11 13:04:00,32.9,23.5,30.10,SSW,203,6.3,7.2,68,0.00,,,0.00,WUHU216HW,2013-02-11 19:04:00,
2013-02-11 13:09:00,32.9,23.5,30.10,WSW,250,3.8,7.2,68,0.00,,,0.00,WUHU216HW,2013-02-11 19:09:00,
2013-02-11 13:14:00,33.1,24.0,30.10,SW,235,3.4,6.9,69,0.00,,,0.00,WUHU216HW,2013-02-11 19:14:00,
2013-02-11 13:19:00,33.5,23.9,30.10,West,270,4.0,6.3,68,0.00,,,0.00,WUHU216HW,2013-02-11 19:19:00,
2013-02-11 13:24:00,33.3,23.5,30.10,SSW,203,5.4,8.9,67,0.00,,,0.00,WUHU216HW,2013-02-11 19:24:00,
2013-02-11 13:29:00,33.7,24.1,30.10,WSW,249,1.5,8.9,68,0.00,,,0.00,WUHU216HW,2013-02-11 19:29:00,
2013-02-11 13:34:00,34.2,24.3,30.11,West,278,2.4,6.5,67,0.00,,,0.00,WUHU216HW,2013-02-11 19:34:00,
2013-02-11 13:39:00,33.8,24.3,30.11,West,278,2.8,10.1,68,0.00,,,0.00,WUHU216HW,2013-02-11 19:39:00,
2013-02-11 13:44:00,33.5,23.9,30.11,WSW,248,7.4,10.1,68,0.00,,,0.00,WUHU216HW,2013-02-11 19:44:00,
2013-02-11 13:49:00,33.3,23.5,30.11,SW,221,5.1,7.4,67,0.00,,,0.00,WUHU216HW,2013-02-11 19:49:00,
2013-02-11 13:54:00,33.5,23.9,30.11,West,266,4.2,10.7,68,0.00,,,0.00,WUHU216HW,2013-02-11 19:54:00,
2013-02-11 13:59:00,33.5,23.9,30.11,West,270,5.6,10.7,68,0.00,,,0.00,WUHU216HW,2013-02-11 19:59:00,
2013-02-11 14:04:00,33.5,24.3,30.12,West,267,4.6,5.6,69,0.00,,,0.00,WUHU216HW,2013-02-11 20:04:00,
2013-02-11 14:09:00,33.1,24.4,30.12,WSW,248,4.7,6.0,70,0.00,,,0.00,WUHU216HW,2013-02-11 20:09:00,
2013-02-11 14:14:00,32.8,24.0,30.12,SSW,203,3.4,6.9,70,0.00,,,0.00,WUHU216HW,2013-02-11 20:14:00,
2013-02-11 14:19:00,32.9,23.9,30.12,SSW,210,4.7,8.5,69,0.00,,,0.00,WUHU216HW,2013-02-11 20:19:00,
2013-02-11 14:24:00,33.1,24.4,30.12,WSW,255,3.1,8.5,70,0.00,,,0.00,WUHU216HW,2013-02-11 20:24:00,
2013-02-11 14:29:00,33.1,24.4,30.12,WNW,293,4.0,6.9,70,0.00,,,0.00,WUHU216HW,2013-02-11 20:29:00,
2013-02-11 14:34:00,32.9,23.9,30.12,WSW,248,3.8,7.6,69,0.00,,,0.00,WUHU216HW,2013-02-11 20:34:00,
2013-02-11 14:39:00,33.1,24.4,30.12,WNW,293,3.1,7.6,70,0.00,,,0.00,WUHU216HW,2013-02-11 20:39:00,
2013-02-11 14:44:00,33.1,24.4,30.12,West,272,3.1,6.5,70,0.00,,,0.00,WUHU216HW,2013-02-11 20:44:00,
2013-02-11 14:49:00,32.9,23.9,30.13,WNW,293,3.4,6.5,69,0.00,,,0.00,WUHU216HW,2013-02-11 20:49:00,
2013-02-11 14:54:00,32.8,24.0,30.13,WSW,255,2.0,4.5,70,0.00,,,0.00,WUHU216HW,2013-02-11 20:54:00,
2013-02-11 14:59:00,32.8,24.0,30.13,West,273,4.1,9.6,70,0.00,,,0.00,WUHU216HW,2013-02-11 20:59:00,
2013-02-11 15:04:00,32.8,24.4,30.14,North,0,4.3,9.6,71,0.00,,,0.00,WUHU216HW,2013-02-11 21:04:00,
2013-02-11 15:09:00,32.8,24.0,30.14,NW,315,4.0,6.0,70,0.00,,,0.00,WUHU216HW,2013-02-11 21:09:00,
2013-02-11 15:14:00,32.6,23.9,30.14,WNW,293,4.7,6.5,70,0.00,,,0.00,WUHU216HW,2013-02-11 21:14:00,
2013-02-11 15:19:00,32.6,24.2,30.14,NW,313,3.2,6.5,71,0.00,,,0.00,WUHU216HW,2013-02-11 21:19:00,
2013-02-11 15:24:00,32.4,24.0,30.14,West,270,6.9,6.9,71,0.00,,,0.00,WUHU216HW,2013-02-11 21:24:00,
2013-02-11 15:29:00,32.2,23.9,30.15,West,265,3.2,8.5,71,0.00,,,0.00,WUHU216HW,2013-02-11 21:29:00,
2013-02-11 15:35:00,32.2,23.9,30.15,SSW,203,7.6,9.2,71,0.00,,,0.00,WUHU216HW,2013-02-11 21:35:00,
2013-02-11 15:40:00,32.0,23.8,30.15,SW,218,3.2,9.2,71,0.00,,,0.00,WUHU216HW,2013-02-11 21:40:00,
2013-02-11 15:45:00,32.2,24.2,30.15,SW,236,1.5,7.6,72,0.00,,,0.00,WUHU216HW,2013-02-11 21:45:00,
2013-02-11 15:50:00,32.2,23.9,30.15,WNW,283,4.3,7.2,71,0.00,,,0.00,WUHU216HW,2013-02-11 21:50:00,
2013-02-11 15:55:00,32.2,24.2,30.15,West,267,2.2,7.2,72,0.00,,,0.00,WUHU216HW,2013-02-11 21:55:00,
2013-02-11 16:00:00,32.0,24.4,30.15,West,269,3.5,5.8,73,0.00,,,0.00,WUHU216HW,2013-02-11 22:00:00,
2013-02-11 16:05:00,32.0,24.0,30.15,WNW,293,5.8,6.0,72,0.00,,,0.00,WUHU216HW,2013-02-11 22:05:00,
2013-02-11 16:10:00,32.0,24.0,30.16,NW,310,3.5,6.0,72,0.00,,,0.00,WUHU216HW,2013-02-11 22:10:00,
2013-02-11 16:15:00,31.9,23.9,30.16,SSW,203,3.8,6.0,72,0.00,,,0.00,WUHU216HW,2013-02-11 22:15:00,
2013-02-11 16:20:00,31.9,23.9,30.16,WSW,245,3.6,6.3,72,0.00,,,0.00,WUHU216HW,2013-02-11 22:20:00,
2013-02-11 16:21:00,31.7,23.7,30.16,West,270,1.8,6.3,72,0.00,,,0.00,WUHU216HW,2013-02-11 22:21:00,
2013-02-11 19:37:00,31.0,23.9,30.21,WSW,248,1.3,1.3,75,0.00,,,0.00,WUHU216HW,2013-02-12 01:37:00,
2013-02-11 19:42:00,30.8,23.8,30.22,SSE,158,0.9,1.8,75,0.00,,,0.00,WUHU216HW,2013-02-12 01:42:00,
2013-02-11 19:48:00,30.8,24.1,30.21,SW,225,1.3,3.4,76,0.00,,,0.00,WUHU216HW,2013-02-12 01:48:00,
2013-02-11 19:53:00,30.8,24.1,30.21,West,279,0.7,3.4,76,0.00,,,0.00,WUHU216HW,2013-02-12 01:53:00,
2013-02-11 19:58:00,30.8,24.4,30.21,WSW,258,1.4,3.1,77,0.00,,,0.00,WUHU216HW,2013-02-12 01:58:00,
2013-02-11 20:03:00,30.6,24.0,30.22,North,0,1.3,3.1,76,0.00,,,0.00,WUHU216HW,2013-02-12 02:03:00,
2013-02-11 20:08:00,30.8,24.1,30.22,WSW,253,2.6,4.7,76,0.00,,,0.00,WUHU216HW,2013-02-12 02:08:00,
2013-02-11 20:13:00,30.8,23.8,30.21,West,270,3.6,4.7,75,0.00,,,0.00,WUHU216HW,2013-02-12 02:13:00,
2013-02-11 20:18:00,30.8,23.8,30.22,WSW,248,1.8,4.3,75,0.00,,,0.00,WUHU216HW,2013-02-12 02:18:00,
2013-02-11 20:23:00,30.6,23.6,30.21,SSW,211,1.9,4.3,75,0.00,,,0.00,WUHU216HW,2013-02-12 02:23:00,
2013-02-11 20:28:00,30.6,23.2,30.22,WSW,242,1.7,4.0,74,0.00,,,0.00,WUHU216HW,2013-02-12 02:28:00,
2013-02-11 20:33:00,30.6,23.6,30.22,WSW,248,1.1,4.0,75,0.00,,,0.00,WUHU216HW,2013-02-12 02:33:00,
2013-02-11 20:39:00,30.6,24.0,30.22,West,270,2.0,3.4,76,0.00,,,0.00,WUHU216HW,2013-02-12 02:39:00,
2013-02-11 20:44:00,30.4,23.8,30.22,WSW,248,1.3,3.4,76,0.00,,,0.00,WUHU216HW,2013-02-12 02:44:00,
2013-02-11 20:49:00,30.4,23.8,30.22,NW,323,1.2,3.4,76,0.00,,,0.00,WUHU216HW,2013-02-12 02:49:00,
2013-02-11 20:54:00,30.4,23.8,30.22,WNW,284,1.2,2.7,76,0.00,,,0.00,WUHU216HW,2013-02-12 02:54:00,
2013-02-11 20:59:00,30.2,23.6,30.22,WNW,293,1.6,2.9,76,0.00,,,0.00,WUHU216HW,2013-02-12 02:59:00,
2013-02-11 21:04:00,30.2,23.6,30.22,West,270,1.1,2.9,76,0.00,,,0.00,WUHU216HW,2013-02-12 03:04:00,
2013-02-11 21:09:00,30.1,23.4,30.22,West,270,1.3,2.5,76,0.00,,,0.00,WUHU216HW,2013-02-12 03:09:00,
2013-02-11 21:14:00,30.2,23.6,30.22,West,270,0.7,2.9,76,0.00,,,0.00,WUHU216HW,2013-02-12 03:14:00,
2013-02-11 21:19:00,30.2,23.6,30.22,West,270,1.1,2.9,76,0.00,,,0.00,WUHU216HW,2013-02-12 03:19:00,
2013-02-11 21:24:00,30.2,23.6,30.22,West,270,0.4,1.6,76,0.00,,,0.00,WUHU216HW,2013-02-12 03:24:00,
2013-02-11 21:29:00,30.4,24.0,30.22,WSW,237,1.7,5.1,77,0.00,,,0.00,WUHU216HW,2013-02-12 03:29:00,
2013-02-11 21:34:00,30.4,24.0,30.22,West,270,1.6,5.1,77,0.00,,,0.00,WUHU216HW,2013-02-12 03:34:00,
2013-02-11 21:39:00,30.4,23.8,30.22,SW,225,1.1,3.4,76,0.00,,,0.00,WUHU216HW,2013-02-12 03:39:00,
2013-02-11 21:44:00,30.4,24.0,30.23,SW,221,0.6,2.9,77,0.00,,,0.00,WUHU216HW,2013-02-12 03:44:00,
2013-02-11 21:49:00,30.2,23.9,30.22,NW,315,1.1,3.1,77,0.00,,,0.00,WUHU216HW,2013-02-12 03:49:00,
2013-02-11 21:54:00,30.2,23.9,30.22,West,270,1.1,3.1,77,0.00,,,0.00,WUHU216HW,2013-02-12 03:54:00,
2013-02-11 21:59:00,30.2,23.9,30.23,WSW,248,1.1,2.5,77,0.00,,,0.00,WUHU216HW,2013-02-12 03:59:00,
2013-02-11 22:04:00,30.2,23.9,30.23,North,0,1.1,2.2,77,0.00,,,0.00,WUHU216HW,2013-02-12 04:04:00,
2013-02-11 22:09:00,30.2,24.2,30.24,WNW,287,1.1,2.2,78,0.00,,,0.00,WUHU216HW,2013-02-12 04:09:00,
2013-02-11 22:14:00,30.1,23.7,30.24,North,0,0.2,1.8,77,0.00,,,0.00,WUHU216HW,2013-02-12 04:14:00,
2013-02-11 22:19:00,29.9,23.9,30.24,WSW,248,1.8,1.8,78,0.00,,,0.00,WUHU216HW,2013-02-12 04:19:00,
2013-02-11 22:24:00,29.9,23.5,30.24,West,270,1.8,1.8,77,0.00,,,0.00,WUHU216HW,2013-02-12 04:24:00,
2013-02-11 22:29:00,29.7,23.3,30.24,West,262,1.0,2.7,77,0.00,,,0.00,WUHU216HW,2013-02-12 04:29:00,
2013-02-11 22:34:00,29.5,23.1,30.24,WSW,244,0.5,2.7,77,0.00,,,0.00,WUHU216HW,2013-02-12 04:34:00,
2013-02-11 22:39:00,29.5,23.5,30.24,WSW,237,0.7,1.1,78,0.00,,,0.00,WUHU216HW,2013-02-12 04:39:00,
2013-02-11 22:44:00,29.3,23.7,30.24,SSW,203,1.6,1.6,79,0.00,,,0.00,WUHU216HW,2013-02-12 04:44:00,
2013-02-11 22:49:00,29.5,23.8,30.24,West,270,1.4,2.5,79,0.00,,,0.00,WUHU216HW,2013-02-12 04:49:00,
2013-02-11 22:54:00,29.5,23.8,30.24,NNW,335,1.6,4.0,79,0.00,,,0.00,WUHU216HW,2013-02-12 04:54:00,
2013-02-11 22:59:00,29.5,23.8,30.24,NW,316,1.3,4.0,79,0.00,,,0.00,WUHU216HW,2013-02-12 04:59:00,
2013-02-11 23:00:00,29.5,23.8,30.24,NW,323,1.3,4.0,79,0.00,,,0.00,WUHU216HW,2013-02-12 05:00:00,
2013-02-11 23:05:00,29.3,23.7,30.24,SW,233,0.3,2.5,79,0.00,,,0.00,WUHU216HW,2013-02-12 05:05:00,
2013-02-11 23:10:00,29.3,23.7,30.24,WNW,293,0.7,1.3,79,0.00,,,0.00,WUHU216HW,2013-02-12 05:10:00,
2013-02-11 23:15:00,29.3,23.7,30.24,SW,228,0.8,1.3,79,0.00,,,0.00,WUHU216HW,2013-02-12 05:15:00,
2013-02-11 23:20:00,29.3,23.7,30.25,NW,315,1.6,1.6,79,0.00,,,0.00,WUHU216HW,2013-02-12 05:20:00,
2013-02-11 23:25:00,29.3,23.7,30.25,NW,306,0.5,2.0,79,0.00,,,0.00,WUHU216HW,2013-02-12 05:25:00,
2013-02-11 23:30:00,29.3,23.7,30.25,WSW,240,1.1,2.5,79,0.00,,,0.00,WUHU216HW,2013-02-12 05:30:00,
2013-02-11 23:35:00,29.3,23.3,30.25,NW,315,0.3,2.5,78,0.00,,,0.00,WUHU216HW,2013-02-12 05:35:00,
2013-02-11 23:40:00,29.3,23.3,30.25,WSW,242,1.2,1.8,78,0.00,,,0.00,WUHU216HW,2013-02-12 05:40:00,
2013-02-11 23:45:00,29.2,23.1,30.26,West,270,2.5,2.5,78,0.00,,,0.00,WUHU216HW,2013-02-12 05:45:00,
2013-02-11 23:50:00,29.2,23.1,30.26,WNW,293,0.9,2.5,78,0.00,,,0.00,WUHU216HW,2013-02-12 05:50:00,
2013-02-11 23:55:00,29.2,23.1,30.26,WNW,282,0.6,1.3,78,0.00,,,0.00,WUHU216HW,2013-02-12 05:55:00,